| time (UTC) | temp C | wind direction | speed KPH | gust KPH | rain 1hr cm | rain 24hr cm | rain mn cm | humidity % | barometer mb |
| 20260510164539 | 19 | 210 | 3.2 | 6.4 | 0.00 | 0.71 | 0.00 | 72 | 1014.8 |
| 20260510163048 | 18 | 355 | 1.6 | 6.4 | 0.00 | 0.71 | 0.00 | 73 | 1014.8 |
| 20260510161534 | 17 | 308 | 1.6 | 6.4 | 0.00 | 0.71 | 0.00 | 76 | 1014.7 |
| 20260510160034 | 17 | 345 | 3.2 | 11.3 | 0.00 | 0.71 | 0.00 | 77 | 1014.9 |
| 20260510154533 | 17 | 197 | 3.2 | 11.3 | 0.00 | 0.71 | 0.00 | 77 | 1014.9 |
| 20260510153037 | 17 | 238 | 1.6 | 8.0 | 0.00 | 0.71 | 0.00 | 78 | 1014.7 |
| 20260510151527 | 16 | 245 | 1.6 | 6.4 | 0.00 | 0.71 | 0.00 | 80 | 1014.8 |
| 20260510150022 | 16 | 209 | 1.6 | 6.4 | 0.00 | 0.71 | 0.00 | 81 | 1014.7 |
| 20260510144520 | 15 | 247 | 1.6 | 11.3 | 0.00 | 0.71 | 0.00 | 84 | 1014.7 |
| 20260510143014 | 15 | 265 | 1.6 | 9.7 | 0.00 | 0.71 | 0.00 | 84 | 1014.8 |
| 20260510141513 | 15 | 7 | 0.0 | 6.4 | 0.00 | 0.71 | 0.00 | 89 | 1014.5 |
| 20260510140008 | 14 | 268 | 0.0 | 8.0 | 0.00 | 0.71 | 0.00 | 93 | 1014.5 |
| 20260510134504 | 13 | 262 | 1.6 | 8.0 | 0.00 | 0.71 | 0.00 | 95 | 1014.4 |
| 20260510133001 | 13 | 259 | 0.0 | 4.8 | 0.00 | 0.71 | 0.00 | 96 | 1014.4 |
| 20260510131559 | 12 | 287 | 0.0 | 3.2 | 0.00 | 0.71 | 0.00 | 97 | 1014.6 |
| 20260510130056 | 12 | 210 | 0.0 | 1.6 | 0.00 | 0.71 | 0.00 | 98 | 1014.6 |
| 20260510124552 | 11 | 169 | 0.0 | 3.2 | 0.00 | 0.71 | 0.00 | 98 | 1014.1 |
| 20260510123052 | 11 | 184 | 0.0 | 1.6 | 0.00 | 0.71 | 0.00 | 98 | 1014.0 |
| 20260510121548 | 10 | 234 | 0.0 | 1.6 | 0.00 | 0.71 | 0.00 | 98 | 1014.0 |
| 20260510120044 | 10 | 236 | 0.0 | 0.0 | 0.00 | 0.71 | 0.00 | 98 | 1013.7 |
| 20260510114542 | 10 | 162 | 0.0 | 0.0 | 0.00 | 0.71 | 0.00 | 98 | 1013.6 |
| 20260510113042 | 9 | 162 | 0.0 | 3.2 | 0.00 | 0.71 | 0.00 | 98 | 1013.3 |
| 20260510111538 | 9 | 163 | 0.0 | 3.2 | 0.00 | 0.71 | 0.00 | 97 | 1013.4 |
| 20260510110047 | 9 | 169 | 3.2 | 4.8 | 0.00 | 0.71 | 0.00 | 98 | 1013.1 |
| 20260510104536 | 9 | 158 | 1.6 | 3.2 | 0.00 | 0.71 | 0.00 | 97 | 1013.0 |
| 20260510103037 | 9 | 173 | 0.0 | 3.2 | 0.00 | 0.71 | 0.00 | 98 | 1012.8 |
| 20260510101533 | 9 | 171 | 1.6 | 3.2 | 0.00 | 0.71 | 0.00 | 98 | 1012.7 |
| 20260510100045 | 8 | 162 | 0.0 | 3.2 | 0.00 | 0.71 | 0.00 | 98 | 1012.8 |
| 20260510094538 | 8 | 179 | 1.6 | 3.2 | 0.00 | 0.71 | 0.00 | 97 | 1012.7 |
| 20260510093031 | 8 | 170 | 0.0 | 0.0 | 0.00 | 0.71 | 0.00 | 97 | 1012.6 |
| 20260510091528 | 8 | 152 | 0.0 | 0.0 | 0.00 | 0.71 | 0.00 | 97 | 1012.6 |
| 20260510090028 | 8 | 158 | 0.0 | 0.0 | 0.00 | 0.71 | 0.00 | 97 | 1012.8 |
| 20260510084532 | 8 | 330 | 0.0 | 0.0 | 0.00 | 0.71 | 0.00 | 97 | 1013.1 |
| 20260510083026 | 8 | 330 | 0.0 | 0.0 | 0.00 | 0.71 | 0.00 | 97 | 1013.0 |
| 20260510081535 | 8 | 330 | 0.0 | 3.2 | 0.00 | 0.71 | 0.00 | 97 | 1013.4 |
| 20260510080038 | 8 | 359 | 0.0 | 4.8 | 0.00 | 0.71 | 0.00 | 97 | 1013.3 |
| 20260510074526 | 8 | 347 | 1.6 | 8.0 | 0.00 | 0.71 | 0.00 | 97 | 1013.2 |
| 20260510073035 | 7 | 318 | 4.8 | 19.3 | 0.00 | 0.71 | 0.00 | 97 | 1013.2 |
| 20260510071519 | 7 | 342 | 0.0 | 1.6 | 0.00 | 0.71 | 0.00 | 96 | 1012.5 |
| 20260510070017 | 7 | 341 | 0.0 | 0.0 | 0.00 | 0.71 | 0.00 | 96 | 1012.6 |
| 20260510064519 | 7 | 342 | 0.0 | 0.0 | 0.00 | 0.71 | 0.00 | 97 | 1012.6 |
| 20260510063018 | 7 | 341 | 0.0 | 0.0 | 0.00 | 0.71 | 0.00 | 96 | 1012.9 |
| 20260510061516 | 7 | 341 | 0.0 | 0.0 | 0.00 | 0.71 | 0.00 | 96 | 1012.8 |
| 20260510060031 | 7 | 321 | 0.0 | 1.6 | 0.00 | 0.71 | 0.00 | 96 | 1012.9 |
| 20260510054517 | 8 | 171 | 0.0 | 1.6 | 0.00 | 0.76 | 0.00 | 97 | 1012.6 |
| 20260510053013 | 8 | 170 | 0.0 | 4.8 | 0.00 | 0.76 | 0.00 | 97 | 1012.3 |
| 20260510051512 | 7 | 170 | 1.6 | 3.2 | 0.00 | 0.76 | 0.00 | 96 | 1012.3 |
| 20260510050010 | 7 | 162 | 0.0 | 3.2 | 0.00 | 0.76 | 0.00 | 96 | 1012.4 |
| 20260510044509 | 8 | 160 | 0.0 | 1.6 | 0.00 | 0.79 | 0.00 | 96 | 1012.6 |
| 20260510043007 | 8 | 156 | 0.0 | 0.0 | 0.00 | 0.79 | 0.00 | 96 | 1012.4 |
| 20260510041508 | 8 | 158 | 1.6 | 3.2 | 0.00 | 0.79 | 0.00 | 96 | 1012.4 |
| 20260510040010 | 8 | 160 | 0.0 | 3.2 | 0.00 | 0.79 | 0.00 | 96 | 1012.4 |
| 20260510034503 | 8 | 157 | 1.6 | 3.2 | 0.00 | 0.79 | 0.79 | 96 | 1012.4 |
| 20260510033106 | 8 | 158 | 0.0 | 1.6 | 0.00 | 0.79 | 0.79 | 95 | 1012.1 |
| 20260510033000 | 8 | 158 | 0.0 | 1.6 | 0.00 | 0.79 | 0.79 | 95 | 1012.2 |
| 20260510031605 | 8 | 157 | 0.0 | 0.0 | 0.00 | 0.79 | 0.79 | 95 | 1012.1 |
| 20260510024558 | 8 | 157 | 0.0 | 3.2 | 0.00 | 0.79 | 0.79 | 95 | 1012.2 |
| 20260510023059 | 8 | 157 | 0.0 | 3.2 | 0.00 | 0.79 | 0.79 | 95 | 1012.2 |
| 20260510021646 | 9 | 169 | 1.6 | 3.2 | 0.00 | 0.79 | 0.79 | 95 | 1012.1 |
| 20260510020100 | 9 | 162 | 0.0 | 3.2 | 0.00 | 0.79 | 0.79 | 95 | 1012.2 |
| 20260510014600 | 9 | 167 | 0.0 | 4.8 | 0.00 | 0.79 | 0.79 | 95 | 1012.1 |
| 20260510013102 | 9 | 167 | 0.0 | 3.2 | 0.00 | 0.79 | 0.79 | 95 | 1012.1 |
| 20260510011555 | 9 | 171 | 0.0 | 3.2 | 0.00 | 0.79 | 0.79 | 95 | 1012.1 |
| 20260510010059 | 10 | 166 | 0.0 | 3.2 | 0.00 | 0.79 | 0.79 | 94 | 1011.7 |
| 20260510004554 | 10 | 163 | 1.6 | 4.8 | 0.00 | 0.79 | 0.79 | 94 | 1011.5 |
| 20260510003053 | 10 | 166 | 0.0 | 3.2 | 0.00 | 0.79 | 0.79 | 94 | 1011.3 |
| 20260510001553 | 10 | 165 | 0.0 | 3.2 | 0.00 | 0.79 | 0.79 | 94 | 1011.5 |
| 20260510000053 | 10 | 165 | 1.6 | 4.8 | 0.00 | 0.79 | 0.79 | 94 | 1011.3 |
| 20260509234552 | 10 | 163 | 0.0 | 4.8 | 0.00 | 0.79 | 0.79 | 93 | 1011.2 |
| 20260509233050 | 11 | 155 | 0.0 | 3.2 | 0.00 | 0.79 | 0.79 | 93 | 1010.9 |
| 20260509231552 | 11 | 156 | 0.0 | 4.8 | 0.00 | 0.79 | 0.79 | 93 | 1011.0 |
| 20260509230053 | 11 | 156 | 0.0 | 4.8 | 0.00 | 0.79 | 0.79 | 92 | 1010.9 |
| 20260509224549 | 11 | 159 | 0.0 | 3.2 | 0.00 | 0.79 | 0.79 | 91 | 1010.9 |
| 20260509223051 | 11 | 190 | 1.6 | 3.2 | 0.00 | 0.79 | 0.79 | 93 | 1011.0 |
| 20260509221549 | 11 | 248 | 0.0 | 1.6 | 0.00 | 0.79 | 0.79 | 93 | 1011.3 |
| 20260509220049 | 11 | 267 | 0.0 | 1.6 | 0.00 | 0.79 | 0.79 | 95 | 1011.2 |
| 20260509214547 | 10 | 277 | 0.0 | 1.6 | 0.03 | 0.79 | 0.79 | 94 | 1011.3 |
| 20260509213100 | 10 | 258 | 0.0 | 1.6 | 0.03 | 0.79 | 0.79 | 94 | 1011.4 |
| 20260509211544 | 10 | 274 | 0.0 | 3.2 | 0.05 | 0.79 | 0.79 | 95 | 1011.5 |
| 20260509210049 | 10 | 326 | 0.0 | 3.2 | 0.10 | 0.79 | 0.79 | 95 | 1011.3 |
| 20260509204543 | 10 | 306 | 0.0 | 3.2 | 0.10 | 0.76 | 0.76 | 94 | 1011.4 |
| 20260509203042 | 10 | 281 | 0.0 | 3.2 | 0.18 | 0.76 | 0.76 | 95 | 1011.5 |
| 20260509201541 | 10 | 291 | 0.0 | 8.0 | 0.20 | 0.71 | 0.71 | 94 | 1011.6 |
| 20260509200040 | 10 | 285 | 3.2 | 9.7 | 0.20 | 0.69 | 0.69 | 94 | 1012.0 |
| 20260509194551 | 10 | 293 | 1.6 | 9.7 | 0.23 | 0.64 | 0.64 | 94 | 1012.3 |
| 20260509193036 | 10 | 290 | 0.0 | 8.0 | 0.23 | 0.58 | 0.58 | 94 | 1012.6 |
| 20260509191535 | 10 | 287 | 0.0 | 9.7 | 0.25 | 0.53 | 0.53 | 93 | 1012.6 |
| 20260509190037 | 10 | 302 | 1.6 | 4.8 | 0.30 | 0.48 | 0.48 | 93 | 1012.9 |
| 20260509184535 | 10 | 270 | 0.0 | 3.2 | 0.28 | 0.41 | 0.41 | 93 | 1012.8 |
| 20260509183035 | 10 | 122 | 0.0 | 3.2 | 0.25 | 0.36 | 0.36 | 92 | 1012.7 |
| 20260509181531 | 10 | 255 | 0.0 | 6.4 | 0.20 | 0.28 | 0.28 | 92 | 1013.1 |
| 20260509180035 | 11 | 262 | 0.0 | 6.4 | 0.10 | 0.18 | 0.18 | 91 | 1013.4 |
| 20260509174529 | 11 | 238 | 1.6 | 6.4 | 0.05 | 0.13 | 0.13 | 90 | 1013.2 |
| 20260509173031 | 11 | 251 | 0.0 | 6.4 | 0.03 | 0.10 | 0.10 | 89 | 1012.9 |
| 20260509171534 | 11 | 293 | 1.6 | 6.4 | 0.00 | 0.08 | 0.08 | 87 | 1013.0 |
| 20260509170027 | 11 | 272 | 4.8 | 8.0 | 0.00 | 0.08 | 0.08 | 87 | 1012.9 |